Location: Newark
(30.2328°N, 54.2869°E)
Time: 19:54:00
(UTC+00:00)

Hubble Space Telescope - Pass Details

Date: 27 July 2019
Orbit: 536 x 540 km, 28.5° (Epoch: 24 August)

Event Time Altitude Azimuth Distance (km) Brightness Sun altitude
Exits shadow 00:44:45 14° 220° (SW) 1,517 2.5 -11.1°
Maximum altitude 00:47:39 32° 162° (SSE) 932 1.9 -10.6°
Drops below altitude 10° 00:51:21 10° 98° (E) 1,783 4.3 -9.9°
Sets 00:53:46 0° 89° (E) 2,674 5.6 -9.4°
